Powrót do katalogu

COSMOS 2251 DEB

AktywnyVLEO
NORAD 37316·DEBRIS·🇷🇺 Russia

Wystrzelony Jun 16, 1993 z Plesetsk Cosmodrome

Loading…

Następne Przeloty (najbliższe 24 godziny)

TLE

ŚwieżeSource: Space-Track

Epoka: Sep 14, 2026, 01:31 UTC

1 37316U 93036BKG 26257.06384134  .00030099  00000-0  17537-2 0  9998
2 37316  74.0146 177.7207 0028042 189.6881 170.3775 15.11538021902819

Śledź COSMOS 2251 DEB w czasie rzeczywistym z AllMySat

Download on the App Store